TimeCST,TemperatureF,Dew PointF,Humidity,Sea Level PressureIn,VisibilityMPH,Wind Direction,Wind SpeedMPH,Gust SpeedMPH,PrecipitationIn,Events,Conditions,WindDirDegrees,DateUTC
12:15 AM,70.7,63.3,77,30.06,10.0,SSE,5.8,-,N/A,,Clear,150,2012-11-09 06:15:00
12:35 AM,70.7,63.5,78,30.06,10.0,SSE,5.8,-,N/A,,Clear,150,2012-11-09 06:35:00
12:55 AM,70.7,63.5,78,30.06,10.0,SSE,6.9,-,N/A,,Clear,160,2012-11-09 06:55:00
1:15 AM,70.2,63.0,78,30.05,10.0,SSE,5.8,-,N/A,,Clear,150,2012-11-09 07:15:00
1:35 AM,69.8,62.8,78,30.05,10.0,SSE,5.8,-,N/A,,Clear,150,2012-11-09 07:35:00
1:55 AM,69.8,62.8,78,30.05,10.0,SSE,5.8,-,N/A,,Clear,150,2012-11-09 07:55:00
2:15 AM,69.8,63.0,79,30.05,10.0,SSE,5.8,-,N/A,,Clear,150,2012-11-09 08:15:00
2:35 AM,69.6,62.6,78,30.05,10.0,SSE,4.6,-,N/A,,Clear,150,2012-11-09 08:35:00
2:55 AM,67.5,61.7,82,30.05,10.0,SSE,5.8,-,N/A,,Scattered Clouds,150,2012-11-09 08:55:00
3:15 AM,69.3,62.8,80,30.04,10.0,SSE,5.8,-,N/A,,Mostly Cloudy,150,2012-11-09 09:15:00
3:35 AM,68.2,61.9,80,30.04,10.0,SE,5.8,-,N/A,,Mostly Cloudy,140,2012-11-09 09:35:00
3:55 AM,67.5,61.9,82,30.03,10.0,SE,4.6,-,N/A,,Scattered Clouds,140,2012-11-09 09:55:00
4:15 AM,67.1,61.7,83,30.03,10.0,SE,6.9,-,N/A,,Scattered Clouds,140,2012-11-09 10:15:00
4:35 AM,67.5,61.7,82,30.02,10.0,SE,8.1,-,N/A,,Scattered Clouds,140,2012-11-09 10:35:00
4:55 AM,67.5,61.3,81,30.02,10.0,SE,8.1,-,N/A,,Scattered Clouds,140,2012-11-09 10:55:00
5:15 AM,66.4,61.2,83,30.02,10.0,SE,5.8,-,N/A,,Scattered Clouds,140,2012-11-09 11:15:00
5:55 AM,66.7,61.9,84,30.03,10.0,SE,5.8,-,N/A,,Mostly Cloudy,130,2012-11-09 11:55:00
6:15 AM,67.3,62.1,83,30.04,10.0,SE,6.9,-,N/A,,Scattered Clouds,140,2012-11-09 12:15:00
6:35 AM,67.1,62.1,84,30.04,10.0,SE,6.9,-,N/A,,Scattered Clouds,140,2012-11-09 12:35:00
6:55 AM,68.2,63.0,83,30.04,10.0,SSE,8.1,-,N/A,,Scattered Clouds,150,2012-11-09 12:55:00
7:15 AM,69.4,63.3,81,30.05,10.0,SSE,4.6,-,N/A,,Scattered Clouds,150,2012-11-09 13:15:00
7:35 AM,69.8,63.9,81,30.05,10.0,SSE,8.1,-,N/A,,Scattered Clouds,150,2012-11-09 13:35:00
7:55 AM,72.0,64.8,78,30.05,10.0,SSE,8.1,-,N/A,,Scattered Clouds,150,2012-11-09 13:55:00
8:15 AM,74.7,65.5,73,30.06,10.0,SSE,10.4,-,N/A,,Scattered Clouds,160,2012-11-09 14:15:00
8:35 AM,77.2,65.8,68,30.07,10.0,South,12.7,-,N/A,,Scattered Clouds,170,2012-11-09 14:35:00
8:55 AM,78.6,66.2,66,30.07,10.0,SSE,16.1,-,N/A,,Scattered Clouds,160,2012-11-09 14:55:00
9:15 AM,80.2,66.2,62,30.07,10.0,SSE,19.6,24.2,N/A,,Scattered Clouds,160,2012-11-09 15:15:00
9:35 AM,81.1,65.8,60,30.08,10.0,SSE,20.7,28.8,N/A,,Scattered Clouds,160,2012-11-09 15:35:00
9:55 AM,82.8,64.8,54,30.09,10.0,SSE,23.0,28.8,N/A,,Scattered Clouds,160,2012-11-09 15:55:00
10:15 AM,82.6,63.7,53,30.09,10.0,South,21.9,27.6,N/A,,Mostly Cloudy,170,2012-11-09 16:15:00
10:35 AM,84.4,63.1,49,30.08,10.0,SSE,21.9,31.1,N/A,,Scattered Clouds,160,2012-11-09 16:35:00
10:55 AM,84.9,62.4,47,30.08,10.0,South,24.2,28.8,N/A,,Scattered Clouds,170,2012-11-09 16:55:00
11:15 AM,85.1,63.3,48,30.07,10.0,SSE,23.0,29.9,N/A,,Scattered Clouds,160,2012-11-09 17:15:00
11:35 AM,84.9,62.4,47,30.06,10.0,SSE,24.2,33.4,N/A,,Scattered Clouds,150,2012-11-09 17:35:00
11:55 AM,85.5,62.6,46,30.06,10.0,SSE,24.2,29.9,N/A,,Scattered Clouds,160,2012-11-09 17:55:00
12:15 PM,85.6,62.1,45,30.05,10.0,SSE,25.3,33.4,N/A,,Scattered Clouds,160,2012-11-09 18:15:00
12:35 PM,86.4,61.5,43,30.03,10.0,SSE,23.0,32.2,N/A,,Scattered Clouds,150,2012-11-09 18:35:00
12:55 PM,86.0,61.7,44,30.02,10.0,SE,23.0,31.1,N/A,,Scattered Clouds,140,2012-11-09 18:55:00
1:15 PM,86.4,60.8,42,30.01,10.0,SSE,25.3,32.2,N/A,,Scattered Clouds,160,2012-11-09 19:15:00
1:35 PM,86.7,59.5,40,30.00,10.0,SSE,24.2,31.1,N/A,,Clear,150,2012-11-09 19:35:00
1:55 PM,86.5,59.7,40,30.00,10.0,SSE,24.2,33.4,N/A,,Clear,150,2012-11-09 19:55:00
2:15 PM,86.7,59.2,39,29.99,10.0,SSE,23.0,29.9,N/A,,Clear,150,2012-11-09 20:15:00
2:35 PM,86.2,58.3,39,29.99,10.0,SSE,20.7,29.9,N/A,,Clear,160,2012-11-09 20:35:00
2:55 PM,86.2,58.8,39,29.98,10.0,SE,24.2,29.9,N/A,,Clear,140,2012-11-09 20:55:00
3:15 PM,86.0,57.0,37,29.98,10.0,SE,19.6,29.9,N/A,,Clear,140,2012-11-09 21:15:00
3:35 PM,85.6,57.6,38,29.97,10.0,SSE,20.7,29.9,N/A,,Clear,150,2012-11-09 21:35:00
3:55 PM,85.1,60.1,43,29.97,10.0,SE,24.2,31.1,N/A,,Clear,130,2012-11-09 21:55:00
4:15 PM,84.2,58.6,42,29.97,10.0,SE,24.2,29.9,N/A,,Clear,140,2012-11-09 22:15:00
4:35 PM,83.1,60.1,46,29.98,10.0,SE,24.2,31.1,N/A,,Clear,140,2012-11-09 22:35:00
4:55 PM,82.0,60.8,48,29.98,10.0,SE,21.9,31.1,N/A,,Clear,140,2012-11-09 22:55:00
5:15 PM,81.0,60.4,50,29.98,10.0,SE,23.0,28.8,N/A,,Clear,140,2012-11-09 23:15:00
5:35 PM,79.7,62.1,55,29.99,10.0,SE,19.6,26.5,N/A,,Clear,140,2012-11-09 23:35:00
5:55 PM,78.8,62.2,57,29.99,10.0,SE,16.1,-,N/A,,Clear,140,2012-11-09 23:55:00
6:15 PM,77.9,62.2,58,29.99,10.0,SE,13.8,-,N/A,,Clear,140,2012-11-10 00:15:00
6:35 PM,77.0,62.6,61,30.00,10.0,SE,13.8,-,N/A,,Clear,140,2012-11-10 00:35:00
6:55 PM,76.1,62.6,63,30.01,10.0,SE,10.4,-,N/A,,Clear,140,2012-11-10 00:55:00
7:15 PM,75.2,62.1,64,30.02,10.0,SE,9.2,-,N/A,,Clear,140,2012-11-10 01:15:00
7:35 PM,74.3,61.7,65,30.02,10.0,SE,9.2,-,N/A,,Clear,140,2012-11-10 01:35:00
7:55 PM,73.6,61.3,65,30.02,10.0,SE,9.2,-,N/A,,Clear,130,2012-11-10 01:55:00
8:15 PM,73.4,61.7,67,30.02,10.0,SE,10.4,-,N/A,,Clear,130,2012-11-10 02:15:00
8:35 PM,73.4,62.1,68,30.02,10.0,SE,10.4,-,N/A,,Clear,140,2012-11-10 02:35:00
9:15 PM,72.1,62.1,70,30.04,10.0,SE,6.9,-,N/A,,Clear,140,2012-11-10 03:15:00
9:35 PM,72.1,62.2,71,30.04,10.0,SE,9.2,-,N/A,,Clear,140,2012-11-10 03:35:00
9:55 PM,71.2,62.1,73,30.03,10.0,SE,10.4,-,N/A,,Clear,140,2012-11-10 03:55:00
10:15 PM,71.6,62.6,73,30.03,10.0,SE,10.4,-,N/A,,Clear,140,2012-11-10 04:15:00
10:35 PM,71.6,62.8,74,30.04,10.0,SE,9.2,-,N/A,,Clear,140,2012-11-10 04:35:00
10:55 PM,71.6,62.6,73,30.04,10.0,SE,10.4,-,N/A,,Clear,140,2012-11-10 04:55:00
11:15 PM,71.8,62.2,72,30.03,10.0,SE,10.4,-,N/A,,Clear,140,2012-11-10 05:15:00
11:35 PM,71.2,62.1,73,30.03,10.0,SE,9.2,-,N/A,,Clear,140,2012-11-10 05:35:00
11:55 PM,70.9,61.9,73,30.03,10.0,SE,9.2,-,N/A,,Clear,140,2012-11-10 05:55:00